TimeMDT,TemperatureF,Dew PointF,Humidity,Sea Level PressureIn,VisibilityMPH,Wind Direction,Wind SpeedMPH,Gust SpeedMPH,PrecipitationIn,Events,Conditions,WindDirDegrees,DateUTC
12:55 AM,55.0,44.1,67,30.07,10.0,Calm,Calm,-,N/A,,Clear,0,2013-06-27 06:55:00
1:55 AM,57.0,44.1,62,30.07,10.0,SE,3.5,-,N/A,,Clear,140,2013-06-27 07:55:00
2:55 AM,53.1,43.0,69,30.08,10.0,NW,3.5,-,N/A,,Clear,310,2013-06-27 08:55:00
3:55 AM,53.1,43.0,69,30.09,10.0,Calm,Calm,-,N/A,,Clear,0,2013-06-27 09:55:00
4:55 AM,51.1,43.0,74,30.11,10.0,South,3.5,-,N/A,,Clear,170,2013-06-27 10:55:00
5:55 AM,48.9,42.1,77,30.13,10.0,Calm,Calm,-,N/A,,Clear,0,2013-06-27 11:55:00
6:55 AM,52.0,43.0,71,30.14,10.0,Calm,Calm,-,N/A,,Clear,0,2013-06-27 12:55:00
7:55 AM,55.9,46.0,69,30.15,10.0,Calm,Calm,-,N/A,,Clear,0,2013-06-27 13:55:00
8:55 AM,61.0,46.0,58,30.15,10.0,NNE,4.6,-,N/A,,Clear,30,2013-06-27 14:55:00
9:55 AM,66.0,46.0,48,30.15,10.0,NNE,3.5,-,N/A,,Clear,30,2013-06-27 15:55:00
10:55 AM,70.0,46.0,42,30.14,10.0,Calm,Calm,-,N/A,,Clear,0,2013-06-27 16:55:00
11:55 AM,75.9,46.9,36,30.12,10.0,Calm,Calm,-,N/A,,Clear,0,2013-06-27 17:55:00
12:55 PM,81.0,46.9,30,30.09,10.0,Variable,3.5,-,N/A,,Clear,0,2013-06-27 18:55:00
1:55 PM,86.0,41.0,20,30.05,10.0,NE,5.8,-,N/A,,Clear,40,2013-06-27 19:55:00
2:55 PM,88.0,39.0,18,30.04,10.0,NNE,5.8,-,N/A,,Clear,30,2013-06-27 20:55:00
3:52 PM,91.4,26.6,10,30.22,10.0,WNW,17.3,26.5,N/A,,Clear,290,2013-06-27 21:52:00
3:55 PM,91.9,28.0,10,30.01,10.0,WNW,18.4,26.5,N/A,,Clear,290,2013-06-27 21:55:00
4:55 PM,91.9,27.0,10,30.02,10.0,West,15.0,23.0,N/A,,Clear,280,2013-06-27 22:55:00
5:55 PM,91.0,24.1,9,30.04,10.0,WSW,13.8,21.9,N/A,,Clear,240,2013-06-27 23:55:00
6:55 PM,89.1,23.0,9,30.04,10.0,SW,9.2,20.7,N/A,,Clear,230,2013-06-28 00:55:00
7:55 PM,87.1,26.1,11,30.04,10.0,West,10.4,-,N/A,,Clear,280,2013-06-28 01:55:00
8:55 PM,84.0,24.1,11,30.04,10.0,WSW,10.4,-,N/A,,Clear,250,2013-06-28 02:55:00
9:55 PM,77.0,28.0,17,30.07,10.0,West,8.1,-,N/A,,Clear,270,2013-06-28 03:55:00
10:55 PM,68.0,39.0,35,30.12,10.0,Calm,Calm,-,N/A,,Clear,0,2013-06-28 04:55:00
11:55 PM,69.1,35.1,29,30.11,10.0,Variable,4.6,-,N/A,,Clear,0,2013-06-28 05:55:00